Custer, SD

4:36 PM MDT on September 21, 2017 (GMT -0600)
Custer County

Weather History for KCUT - February, 2013

Change the Weather History Date:

Tuesday, February 19, 2013

  Actual Average Record
Temperature  
Mean Temperature 11 °F 26 °F  
Max Temperature 24 °F 37 °F 56 °F (2017)
Min Temperature -3 °F 16 °F -12 °F (1944)
Degree Days  
Heating Degree Days 54 39  
Month to date heating degree days 747 760  
Since 1 July heating degree days 5156 5495  
Cooling Degree Days 0 0  
Month to date cooling degree days 0 0  
Year to date cooling degree days 0 0  
Moisture  
Dew Point 5 °F    
Average Humidity 76    
Maximum Humidity 91    
Minimum Humidity 60    
Precipitation  
Precipitation 0.00 in 0.02 in 0.32 in (1986)
Month to date precipitation 0.05 0.37  
Year to date precipitation 0.85 0.70  
Sea Level Pressure  
Sea Level Pressure 30.07 in    
Wind  
Wind Speed 6 mph (South)    
Max Wind Speed 16 mph    
Max Gust Speed 22 mph    
Visibility 8 miles    
Events      
T = Trace of Precipitation, MM = Missing Value Source: NWS Daily Summary

Daily Weather History Graph

Daily Weather History Graph

Search for Another Location

Airport or City:

Trip Planner

Search our weather history database for the weather conditions in past years. The results will help you decide how hot, cold, wet, or windy it might be!

Date:

Astronomy

Feb. 19, 2013 Rise Set
Actual Time 6:46 AM MST 5:30 PM MST
Civil Twilight 6:17 AM MST 5:59 PM MST
Nautical Twilight 5:44 AM MST 6:33 PM MST
Astronomical Twilight 5:10 AM MST 7:06 PM MST
Moon 11:57 AM MST (2/19) 2:26 AM MST (2/19)
Length of Visible Light 11h 42m
Length of Day
10h 43m
Waxing Gibbous, 68% of the Moon is Illuminated
Feb 19
Waxing Gibbous
Feb 25
Full
Mar 4
Last Quarter
Mar 11
New
Mar 19
First Quarter

Hourly Weather History & Observations

Time (MST) Temp. Windchill Dew Point Humidity Pressure Visibility Wind Dir Wind Speed Gust Speed Precip Events Conditions
12:00 AM - - - N/A% - - North - - N/A   Unknown
12:53 AM 3.0 °F - -0.9 °F 84% 30.18 in 10.0 mi Calm Calm - N/A   Clear
1:53 AM 5.0 °F -2.1 °F -0.9 °F 76% 30.18 in 10.0 mi SSW 3.5 mph - N/A   Clear
2:53 AM 3.9 °F -5.3 °F -0.9 °F 80% 30.17 in 10.0 mi WSW 4.6 mph - N/A   Clear
3:53 AM 1.9 °F - -2.9 °F 80% 30.18 in 10.0 mi Calm Calm - N/A   Clear
4:53 AM -0.0 °F - -5.1 °F 79% 30.21 in 10.0 mi Calm Calm - N/A   Clear
5:25 AM -0.4 °F -13.4 °F -2.2 °F 92% 29.97 in 5.0 mi South 6.9 mph - N/A   Scattered Clouds
5:30 AM -0.4 °F -14.7 °F -2.2 °F 92% 29.97 in 1.2 mi South 8.1 mph - N/A   Scattered Clouds
5:32 AM 1.4 °F -11.3 °F -2.2 °F 85% 29.97 in 0.8 mi SSW 6.9 mph - N/A   Mist
5:53 AM -0.0 °F - -2.9 °F 88% 30.23 in 0.8 mi Calm Calm - N/A   Mist
6:04 AM -0.4 °F -10.4 °F -2.2 °F 92% 29.96 in 1.8 mi SSW 4.6 mph - N/A   Overcast
6:12 AM -2.2 °F -12.5 °F -5.8 °F 85% 29.96 in 2.0 mi SSW 4.6 mph - N/A   Overcast
6:22 AM -0.4 °F -10.4 °F -5.8 °F 78% 29.96 in 6.0 mi SSW 4.6 mph - N/A   Mostly Cloudy
6:33 AM -2.2 °F -14.2 °F -7.6 °F 78% 29.96 in 10.0 mi SSW 5.8 mph - N/A   Scattered Clouds
6:53 AM -0.9 °F - -6.0 °F 79% 30.24 in 10.0 mi Calm Calm - N/A   Clear
7:53 AM 5.0 °F - -0.0 °F 80% 30.23 in 10.0 mi Calm Calm - N/A   Clear
8:53 AM 12.9 °F -0.2 °F 8.1 °F 81% 30.20 in 10.0 mi South 10.4 mph - N/A   Clear
9:53 AM 19.0 °F 9.0 °F 10.0 °F 68% 30.17 in 10.0 mi South 8.1 mph - N/A   Clear
10:53 AM 23.0 °F 10.6 °F 12.0 °F 63% 30.17 in 10.0 mi SSW 13.8 mph 21.9 mph N/A   Clear
11:53 AM 21.9 °F 11.0 °F 12.9 °F 68% 30.16 in 10.0 mi South 10.4 mph 19.6 mph N/A   Clear
12:53 PM 24.1 °F 13.7 °F 12.0 °F 60% 30.12 in 10.0 mi South 10.4 mph 17.3 mph N/A   Clear
1:53 PM 21.0 °F 12.4 °F 12.9 °F 71% 30.12 in 10.0 mi SSE 6.9 mph - N/A   Partly Cloudy
2:53 PM 19.9 °F 7.9 °F 12.9 °F 74% 30.13 in 10.0 mi ESE 11.5 mph - N/A   Mostly Cloudy
3:01 PM 19.4 °F 6.6 °F 12.2 °F 74% 29.90 in 10.0 mi SE 12.7 mph - N/A   Scattered Clouds
3:22 PM 19.4 °F 7.2 °F 12.2 °F 74% 29.89 in 10.0 mi ESE 11.5 mph 17.3 mph N/A   Mostly Cloudy
3:53 PM 19.0 °F 6.8 °F 12.9 °F 77% 30.13 in 10.0 mi SE 11.5 mph - N/A   Overcast
6:40 PM 15.8 °F 4.2 °F 10.4 °F 79% 29.88 in 10.0 mi East 9.2 mph - N/A   Overcast
6:53 PM 16.0 °F 7.4 °F 10.9 °F 81% 30.14 in 10.0 mi ESE 5.8 mph - N/A   Overcast
7:50 PM 17.6 °F 7.3 °F 12.2 °F 79% 29.87 in 10.0 mi SE 8.1 mph - N/A   Mostly Cloudy
7:53 PM 17.1 °F 6.6 °F 12.9 °F 84% 30.11 in 10.0 mi SE 8.1 mph - N/A   Mostly Cloudy
8:27 PM 17.6 °F 6.4 °F 12.2 °F 79% 29.87 in 10.0 mi SE 9.2 mph - N/A   Scattered Clouds
8:53 PM 17.1 °F 7.6 °F 12.9 °F 84% 30.07 in 10.0 mi South 6.9 mph - N/A   Partly Cloudy
9:53 PM 18.0 °F 6.9 °F 14.0 °F 84% 30.04 in 10.0 mi South 9.2 mph - N/A   Clear
10:53 PM 18.0 °F 7.7 °F 12.9 °F 81% 30.01 in 10.0 mi South 8.1 mph - N/A   Clear
11:53 PM 16.0 °F 6.3 °F 12.0 °F 84% 30.02 in 10.0 mi SSW 6.9 mph - N/A   Clear